TimeFrame on Redefined Productions
Outwar Torax TimeFrame

Torax TimeFrame

95 Gods Updated: 2019-04-21 08:55:01
NameTime LeftWindow Opens
Animated Captain10d 19:352019-04-10 20:38:00
Old World Drake6d 07:022019-04-15 09:11:00
Skarthul the Avenged2d 02:402019-04-19 13:33:00
Grivvek, Protector of the Brood1d 21:302019-04-19 18:43:00
Slashbrood, Devourer of the Blackness1d 15:402019-04-20 00:33:00
Windstrike The Vile1d 07:272019-04-20 08:46:00
Balerion, Dragon of Dread1d 04:182019-04-20 11:55:00
Rancid, Lord of Thugs0d 22:392019-04-20 17:34:00
Threk, King of Lords0d 18:462019-04-20 21:27:00
Lord Xordam0d 18:132019-04-20 22:00:00
Tylos, The Lord Master0d 17:562019-04-20 22:17:00
Nar Zhul, Slayer of All0d 16:182019-04-20 23:55:00
King Ashnar, Lord of the Unliving0d 15:022019-04-21 01:11:00
Anvilfist0d 14:352019-04-21 01:38:00
Esquin, the Kinetic Master0d 13:282019-04-21 02:45:00
Xynak, the Arcane Master0d 13:222019-04-21 02:51:00
Varsanor, Master of Darkness0d 11:192019-04-21 04:54:00
Lord Varan0d 09:382019-04-21 06:35:00
Dlanod, the Crazed Chancellor0d 09:152019-04-21 06:58:00
Volgan the Living Ironbark0d 07:512019-04-21 08:22:00
Gorganus of the Wood0d 06:362019-04-21 09:37:00
Great Lord Ganeshan0d 05:042019-04-21 11:09:00
Detox0d 04:492019-04-21 11:24:00
Murderface0d 04:462019-04-21 11:27:00
Garland, The Lord Keeper0d 04:362019-04-21 11:37:00
Terrance, Rebel of Rallis0d 04:132019-04-21 12:00:00
Crane0d 02:492019-04-21 13:24:00
Lord Narada0d 00:382019-04-21 15:35:00
Keeper of Nature0d 00:282019-04-21 16:42:00
Tsort0d 00:512019-04-21 17:05:00
Freezebreed, The Frozen Manipulator0d 02:432019-04-21 18:57:00
Smoot the Yeti0d 04:282019-04-21 20:42:00
Viserion, the Necrodragon0d 06:112019-04-21 22:25:00
Synge, The Red Dragon0d 07:112019-04-21 23:25:00
Jazzmin, Maiden of Vitality0d 07:572019-04-22 00:11:00
Traxodon the Plaguebringer0d 08:332019-04-22 00:47:00
Shadow0d 10:412019-04-22 02:55:00
Nessam0d 10:532019-04-22 03:07:00
Baron Mu, Dark Rider of the Undead0d 11:072019-04-22 03:21:00
Sylvanna TorLai0d 12:192019-04-22 04:33:00
Zertan, The Collector0d 13:172019-04-22 05:31:00
Pinosis0d 14:122019-04-22 06:26:00
Ebliss, Fallen Angel of Despair0d 14:502019-04-22 07:04:00
Lord Sibannac0d 15:082019-04-22 07:22:00
Brutalitar, Lord of the Underworld0d 15:132019-04-22 07:27:00
Kretok, Descendant of Nature0d 15:222019-04-22 07:36:00
Sarcrina the Astral Priestess0d 16:092019-04-22 08:23:00
Crolvak, the Fire Master0d 16:162019-04-22 08:30:00
Gnorb0d 17:142019-04-22 09:28:00
Numerocure, The Black Messenger of Evil0d 18:112019-04-22 10:25:00
Melt Bane, The Forbidden Demon Dragon0d 18:432019-04-22 10:57:00
Nafir, God of Desolation0d 20:382019-04-22 12:52:00
Lady Chaos, Queen of the Abyss0d 21:332019-04-22 13:47:00
Ganja the Stone Golem0d 22:242019-04-22 14:38:00
Jorun the Blazing Swordsman0d 23:222019-04-22 15:36:00
Kro Shuk, Doomslayer0d 23:342019-04-22 15:48:00
Samatha Dark-Soul0d 23:352019-04-22 15:49:00
Hackerphage, Protector of the Gateway1d 01:212019-04-22 17:35:00
Ancient Magus Tarkin1d 04:042019-04-22 20:18:00
Sigil, Lich of Woe1d 04:052019-04-22 20:19:00
Anguish1d 05:232019-04-22 21:37:00
Rotborn, Eater of the Dead1d 05:252019-04-22 21:39:00
Bloodchill the Grizzly1d 05:372019-04-22 21:51:00
Lady Ariella1d 08:062019-04-23 00:20:00
Archdevil Yirkon1d 08:502019-04-23 01:04:00
Zikkir the Dark Archer1d 11:012019-04-23 03:15:00
Amalgamated Apparition1d 12:512019-04-23 05:05:00
Akkel the Enflamed Warrior1d 17:232019-04-23 09:37:00
Nayark the Mummified Sorcerer1d 17:322019-04-23 09:46:00
Dreg nor, Keeper of the Infernal Essence1d 18:122019-04-23 10:26:00
The Emerald Assassin1d 20:122019-04-23 12:26:00
Lord Suka1d 23:022019-04-23 15:16:00
Raiyar, the Shadow Master1d 23:212019-04-23 15:35:00
Quiver, The Renegade2d 00:522019-04-23 17:06:00
Crantos, Defender of Ultimation2d 02:392019-04-23 18:53:00
Straya, the Underworld Ruler2d 04:102019-04-23 20:24:00
Ag Nabak the Abomination2d 04:582019-04-23 21:12:00
Emperor Neudeus, Controller of the Universe2d 22:002019-04-24 14:14:00
Felroc, Overseer of Hellfire3d 13:032019-04-25 05:17:00
Skybrine The Inescapable3d 14:192019-04-25 06:33:00
Lacuste of the Swarm3d 15:012019-04-25 07:15:00
Howldroid, Tormentor of the Pit3d 16:332019-04-25 08:47:00
Karvaz, Lord of Alsayic3d 20:392019-04-25 12:53:00
Bolkor, the Holy Master3d 21:572019-04-25 14:11:00
Ormsul the Putrid4d 10:202019-04-26 02:34:00
Q-SEC Commander4d 10:302019-04-26 02:44:00
Jade Dragonite33d 21:402019-03-18 18:33:00
Noxious Slug14d 21:262019-04-06 18:47:00
Beast of Cards14d 08:122019-04-07 08:01:00
Vitkros, Hydra of the Deep4d 02:482019-04-17 13:25:00
Wanhiroeaz the Devourer4d 02:072019-04-17 14:06:00
Hyrak, Bringer of Nightmares3d 18:102019-04-17 22:03:00
Mistress of the Sword3d 08:302019-04-18 07:43:00
Shaik, Servant of Arkron1d 21:052019-04-19 19:08:00
Rook, Hand of Arkron1d 19:292019-04-19 20:44:00